[[{"header":{"parameterUnit":"m.s-1","parameterCategory":2,"la1":30.2991,"la2":30.254,"lo1":-89.0895,"lo2":-89.0444,"dy":0.0017,"dx":0.0017,"nx":28,"ny":28,"refTime":"2023-09-09T03:00:00:Z","depth":"0","parameterNumber":2,"parameterNumberName":"U-component_of_CURRENTS"},"data":[0,0,0,0,0,0,0,0,0,0,0,0,0,0,0,0,0,0,0,0,0,0,0,0,0,0,0,0,0,0,0,0,0,0,0,0,0,0,0,0,0,0,0,0,0,0,0,0,0,0,0,0,0,0,0,0,0,0,0.3572,0.3573,0,0.3634,0.3635,0.3636,0.3663,0.3663,0.3663,0.3663,0.3718,0.372,0.3721,0,0,0,0,0,0,0,0,0,0,0,0,0,0.35,0.3501,0.3572,0.3573,0.3573,0.3634,0.3635,0.3636,0.3663,0.3663,0.3663,0.3663,0.3717,0.3719,0.3721,0,0,0,0,0,0,0,0,0,0,0,0,0,0.3544,0.3502,0.3572,0.3594,0.3596,0.3634,0.3635,0.3636,0.3663,0.3663,0.3663,0.3663,0.3717,0.3719,0.3722,0.3741,0,0,0.3729,0.373,0,0,0,0,0,0,0,0,0.3542,0.3547,0.359,0.3592,0.3595,0.364,0.363,0.3671,0.3664,0.3639,0.3663,0.3663,0.3691,0.3695,0.3709,0.3744,0.3746,0.3729,0.3731,0.3732,0.3732,0,0,0,0,0,0,0,0.3539,0.3545,0.3597,0.3591,0.3594,0.3608,0.3614,0.3638,0.3666,0.3641,0.3643,0.3649,0.3692,0.3707,0.371,0.3747,0.3729,0.3731,0.3733,0.3734,0.3873,0.3875,0,0,0,0,0,0,0.3529,0.3542,0.3595,0.3599,0.3566,0.361,0.3616,0.3627,0.3666,0.3672,0.3649,0.365,0.3703,0.3708,0.3712,0.3799,0.3732,0.3734,0.3735,0.387,0.3873,0.3876,0,0,0,0,0,0,0.3527,0.3533,0.3593,0.3571,0.3579,0.3611,0.3622,0.3628,0.3649,0.3672,0.3677,0.3664,0.3703,0.3709,0.3751,0.3799,0.3735,0.3737,0.3868,0.3871,0.3874,0.3934,0,0,0,0,0,0,0.3525,0.3532,0.354,0.357,0.358,0.3626,0.3623,0.3629,0.3652,0.3654,0.3687,0.3691,0.3703,0.3748,0.3754,0.3801,0.3739,0.3865,0.3869,0.3873,0.3929,0.3939,0.3947,0,0,0,0,0,0.3522,0.3533,0.354,0.3547,0.3589,0.3626,0.3634,0.3655,0.3653,0.3671,0.3696,0.3691,0.3779,0.3751,0.3758,0.3807,0.3863,0.3868,0.3873,0.3925,0.3937,0.3947,0,0,0,0,0,0,0.3499,0.3538,0.3546,0.3566,0.3598,0.3631,0.3649,0.3659,0.3693,0.3695,0.3711,0.3719,0.3783,0.3783,0.3751,0.3862,0.3824,0.383,0.3861,0.3872,0.3881,0.3873,0.3741,0,0,0,0,0,0.3499,0.3522,0.3557,0.3573,0.3591,0.362,0.3637,0.3653,0.3684,0.3698,0.372,0.3754,0.3809,0.3827,0.3867,0.3913,0.3919,0.3953,0.3962,0.3969,0.3969,0.4021,0.4034,0.3892,0.3892,0.3892,0,0,0.3491,0.3517,0.3528,0.3571,0.3596,0.3632,0.3631,0.3663,0.3697,0.3699,0.3749,0.3787,0.3831,0.3898,0.3926,0.39,0.4016,0.3976,0.3982,0.3977,0.4027,0.4041,0.4053,0.3896,0.3895,0.3894,0,0,0.349,0.3516,0.3535,0.3567,0.3609,0.364,0.365,0.369,0.3716,0.3766,0.3795,0.3856,0.3909,0.3964,0.3996,0.4076,0.4069,0.4092,0.4123,0.4174,0.4186,0.4196,0.4229,0.4241,0.4088,0.4088,0.4088,0,0.3477,0.3509,0.3546,0.3575,0.3604,0.3645,0.3675,0.3716,0.3764,0.3796,0.3788,0.3914,0.3948,0.4053,0.4087,0.4098,0.4112,0.4076,0.4185,0.4195,0.4205,0.4235,0.4248,0.4092,0.4091,0.4091,0.4091,0,0.3492,0.3521,0.3538,0.3596,0.3635,0.3668,0.3729,0.3775,0.3809,0.3848,0.3946,0.3999,0.4069,0.4107,0.4122,0.4223,0.4207,0.4196,0.4152,0.4222,0.4251,0.4263,0.4097,0.4095,0.4094,0.4094,0,0,0.345,0.3532,0.3535,0.3566,0.3648,0.3679,0.3759,0.3841,0.3897,0.3953,0.4024,0.4134,0.4154,0.4193,0.423,0.4278,0.4368,0.4262,0.4263,0.4285,0.447,0.4319,0.4318,0.4371,0.4373,0.4375,0.4464,0,0.3449,0.3497,0.3548,0.3607,0.3643,0.372,0.3793,0.3874,0.3946,0.4026,0.4103,0.4186,0.4191,0.4235,0.4287,0.4355,0.4402,0.4344,0.4406,0.4408,0.4257,0.4328,0.4093,0.4139,0.4476,0.4478,0.448,0,0.3445,0.3482,0.3528,0.3625,0.3649,0.3695,0.3823,0.3891,0.4025,0.4086,0.4175,0.4227,0.4335,0.4313,0.4444,0.4403,0.444,0.4477,0.4481,0.4324,0.428,0.4124,0.4149,0.4076,0.4499,0.4497,0.4496,0,0.3394,0.3471,0.3507,0.3535,0.365,0.3694,0.3765,0.39,0.3968,0.4118,0.4179,0.43,0.4356,0.4434,0.4499,0.4483,0.4616,0.4602,0.4504,0.4494,0.4295,0.4261,0.4241,0.4688,0.4688,0.4688,0.4687,0,0.3379,0.3407,0.3481,0.3499,0.3558,0.3654,0.3736,0.3842,0.3976,0.4058,0.4188,0.4264,0.4385,0.4465,0.4524,0.454,0.4636,0.4518,0.451,0.4308,0.4276,0.4201,0.4176,0.4691,0.469,0.469,0.4689,0,0.3329,0.3373,0.3413,0.3506,0.3533,0.3573,0.3693,0.3762,0.3907,0.4017,0.4064,0.4241,0.4348,0.4448,0.4577,0.4543,0.4461,0.4583,0.4324,0.4281,0.4064,0.4049,0.3868,0.3764,0.4479,0.4476,0.4473,0,0.3313,0.3326,0.3386,0.3402,0.344,0.3505,0.3561,0.3709,0.3779,0.3992,0.4034,0.418,0.425,0.437,0.4353,0.4401,0.4356,0.4208,0.4125,0.4019,0.4001,0.3881,0.3801,0.3907,0.39,0.3894,0.3889,0,0.3286,0.3296,0.3323,0.3344,0.3379,0.3421,0.3501,0.3541,0.3719,0.3804,0.3919,0.3991,0.4085,0.4004,0.4049,0.4061,0.3968,0.4084,0.4055,0.3606,0.3396,0.3301,0.389,0.3837,0.3843,0.3846,0.3849,0.3851,0.3258,0.3255,0.3274,0.3282,0.3308,0.3323,0.3304,0.3392,0.3453,0.3523,0.3694,0.3703,0.3719,0.372,0.3711,0.3538,0.3591,0.3437,0.3452,0.336,0.3162,0.3616,0.3494,0.3497,0.35,0.3502,0.3504,0,0.3222,0.3212,0.322,0.32,0.3162,0.3215,0.3245,0.3193,0.3172,0.3276,0.3307,0.3271,0.318,0.3211,0.3079,0.2946,0.2834,0.2891,0.2706,0.2681,0.3158,0.3035,0.2707,0.2707,0.2707,0.2707,0.2707,0.2707,0.3204,0.3167,0.3148,0.3045,0.3021,0.2916,0.2887,0.2836,0.285,0.2769,0.2717,0.2751,0.2864,0.2794,0.2648,0.2584,0.245,0.2252,0.2358,0.2741,0.2795,0.2846,0.2726,0.2339,0.2338,0.1728,0.1724,0.1721]},{"header":{"parameterUnit":"m.s-1","parameterCategory":2,"la1":30.2991,"la2":30.254,"lo1":-89.0895,"lo2":-89.0444,"dy":0.0017,"dx":0.0017,"nx":28,"ny":28,"refTime":"2023-09-09T03:00:00:Z","depth":"0","parameterNumber":3,"parameterNumberName":"V-component_of_CURRENTS"},"data":[0,0,0,0,0,0,0,0,0,0,0,0,0,0,0,0,0,0,0,0,0,0,0,0,0,0,0,0,0,0,0,0,0,0,0,0,0,0,0,0,0,0,0,0,0,0,0,0,0,0,0,0,0,0,0,0,0,0,0.0013,0.0013,0,-0.0064,-0.0065,-0.0066,-0.011,-0.011,-0.011,-0.011,-0.0236,-0.0239,-0.0242,0,0,0,0,0,0,0,0,0,0,0,0,0,0.0069,0.0068,0.0013,0.0013,0.0012,-0.0064,-0.0065,-0.0066,-0.011,-0.011,-0.011,-0.011,-0.0235,-0.0239,-0.0243,0,0,0,0,0,0,0,0,0,0,0,0,0,0.0022,0.0068,0.0014,-0.0018,-0.0021,-0.0063,-0.0065,-0.0066,-0.011,-0.011,-0.011,-0.011,-0.0233,-0.0238,-0.0243,-0.0275,0,0,-0.0259,-0.0261,0,0,0,0,0,0,0,0,0.0025,0.002,-0.0012,-0.0016,-0.0019,-0.0075,-0.0091,-0.0138,-0.011,-0.0078,-0.011,-0.011,-0.0186,-0.0195,-0.0211,-0.0281,-0.0287,-0.0259,-0.0262,-0.0265,-0.0266,0,0,0,0,0,0,0,0.0028,0.0023,-0.0019,-0.0013,-0.0017,-0.0046,-0.0052,-0.0101,-0.0133,-0.0081,-0.0084,-0.0089,-0.0188,-0.0206,-0.0215,-0.0289,-0.0259,-0.0264,-0.0267,-0.0269,-0.0456,-0.0458,0,0,0,0,0,0,0.0044,0.0026,-0.0017,-0.0021,0.0005,-0.0047,-0.0054,-0.0059,-0.0132,-0.0142,-0.0089,-0.0091,-0.0197,-0.0209,-0.0219,-0.0272,-0.0265,-0.0269,-0.0272,-0.0454,-0.0456,-0.0458,0,0,0,0,0,0,0.0046,0.0041,-0.0013,0.0002,-0.0007,-0.0047,-0.0053,-0.006,-0.0075,-0.0137,-0.0149,-0.0095,-0.0198,-0.0212,-0.0266,-0.0277,-0.0272,-0.0276,-0.0452,-0.0455,-0.0457,-0.0371,0,0,0,0,0,0,0.0048,0.0042,0.0043,0.0003,-0.0007,-0.0028,-0.0053,-0.0062,-0.0078,-0.0081,-0.0146,-0.0158,-0.0199,-0.0258,-0.0271,-0.0283,-0.028,-0.0449,-0.0453,-0.0456,-0.0371,-0.037,-0.0369,0,0,0,0,0,0.005,0.0057,0.0044,0.0039,-0.0003,-0.0027,-0.0035,-0.0065,-0.0078,-0.0079,-0.0133,-0.0156,-0.0291,-0.0263,-0.0278,-0.0292,-0.0448,-0.0452,-0.0456,-0.0371,-0.037,-0.0369,0,0,0,0,0,0,0.0083,0.0052,0.0037,0.0034,0.001,-0.0033,-0.0037,-0.006,-0.0103,-0.0107,-0.0168,-0.0184,-0.0236,-0.0287,-0.0254,-0.0365,-0.0379,-0.0386,-0.031,-0.0309,-0.0308,-0.0252,-0.0284,0,0,0,0,0,0.0091,0.0089,0.0053,0.0052,0.0043,0.0003,-0.001,-0.003,-0.0072,-0.009,-0.0139,-0.0206,-0.0269,-0.0302,-0.0359,-0.0412,-0.0403,-0.0441,-0.044,-0.0438,-0.0408,-0.0412,-0.0406,-0.0473,-0.0473,-0.0473,0,0,0.0104,0.0087,0.0086,0.0059,0.0038,0.0031,-0.0005,-0.0017,-0.0032,-0.0098,-0.0135,-0.0195,-0.0282,-0.0339,-0.037,-0.038,-0.0415,-0.0444,-0.0441,-0.0411,-0.0415,-0.0408,-0.0401,-0.0476,-0.0475,-0.0475,0,0,0.0138,0.0115,0.0127,0.011,0.0086,0.0057,0.0057,0.0015,-0.0012,-0.0055,-0.0115,-0.017,-0.0268,-0.0324,-0.037,-0.0403,-0.0404,-0.0444,-0.0395,-0.0399,-0.0391,-0.0385,-0.0343,-0.0333,-0.045,-0.045,-0.045,0,0.0155,0.0162,0.0127,0.0134,0.0126,0.0074,0.0084,0.0044,-0.0012,-0.0031,-0.0057,-0.018,-0.0256,-0.0319,-0.0343,-0.0394,-0.0379,-0.0381,-0.0389,-0.0383,-0.0377,-0.0337,-0.0327,-0.0446,-0.0447,-0.0447,-0.0447,0,0.0198,0.02,0.0206,0.0195,0.0181,0.018,0.0128,0.0105,0.0063,0.0024,-0.0033,-0.0126,-0.0191,-0.0247,-0.0307,-0.0328,-0.0322,-0.0373,-0.0369,-0.0364,-0.0323,-0.0314,-0.0441,-0.0442,-0.0443,-0.0444,0,0,0.0244,0.0238,0.0242,0.025,0.0214,0.0211,0.0183,0.0148,0.0144,0.0074,0.0075,-0.0059,-0.0089,-0.0143,-0.0225,-0.0248,-0.021,-0.029,-0.0292,-0.0207,-0.0172,-0.0159,-0.0148,-0.0255,-0.0253,-0.0252,-0.0149,0,0.0288,0.0325,0.0301,0.0325,0.0336,0.0284,0.0268,0.0229,0.0181,0.0165,0.0075,0.004,-0.0059,-0.0079,-0.0117,-0.019,-0.0187,-0.023,-0.0226,-0.0225,-0.018,-0.0138,-0.0134,-0.0041,-0.014,-0.0138,-0.0137,0,0.0337,0.0355,0.0396,0.0397,0.0398,0.0404,0.0386,0.0366,0.0316,0.0284,0.0243,0.0181,0.0129,0.0051,-0.0014,-0.0033,-0.0082,-0.0132,-0.0131,-0.0136,-0.0196,-0.0074,-0.0022,-0.0143,-0.0124,-0.0125,-0.0126,0,0.0397,0.0417,0.0457,0.0458,0.0451,0.0462,0.0455,0.0413,0.0417,0.0382,0.0405,0.0318,0.0317,0.0226,0.0112,0.0058,0.0074,-0.002,-0.0038,-0.0036,-0.004,-0.0041,-0.0067,-0.0028,-0.0029,-0.0029,-0.0029,0,0.0447,0.0476,0.0497,0.0519,0.0571,0.054,0.0584,0.0555,0.0556,0.0603,0.049,0.0535,0.0363,0.0334,0.0201,0.0138,0.0151,0.0012,-0.0005,-0.0012,-0.0012,-0.0126,-0.0208,-0.0025,-0.0026,-0.0027,-0.0027,0,0.0498,0.051,0.0561,0.0587,0.0603,0.0644,0.0686,0.0719,0.0705,0.0777,0.0787,0.0734,0.0701,0.0546,0.043,0.0289,0.0137,0.017,0.02,0.0183,0.0012,-0.0066,-0.0079,-0.0129,0.0165,0.0166,0.0167,0,0.052,0.0557,0.0627,0.0675,0.0694,0.0752,0.0799,0.0798,0.0851,0.0914,0.0976,0.097,0.0987,0.0832,0.0586,0.0409,0.0243,0.028,0.0149,0.0045,-0.0055,-0.0121,-0.0168,0.019,0.0191,0.0192,0.0192,0,0.0565,0.0601,0.0655,0.0762,0.0833,0.0907,0.0983,0.1053,0.1087,0.1173,0.1294,0.1321,0.1173,0.0995,0.0728,0.0565,0.0191,0.029,0.0162,-0.0035,-0.0086,-0.0156,0.0107,0.0199,0.0199,0.0198,0.0198,0.0198,0.0606,0.0664,0.0754,0.0855,0.0945,0.106,0.1139,0.1245,0.1382,0.1522,0.1544,0.1625,0.1329,0.0963,0.0733,0.0301,0.0273,0.0132,0.0056,0.0007,-0.0076,0.0232,0.03,0.03,0.03,0.03,0.03,0,0.0658,0.0735,0.0834,0.0968,0.1082,0.111,0.1262,0.136,0.1554,0.1701,0.182,0.1746,0.1392,0.0984,0.0407,0.0104,-0.0034,-0.0062,-0.0178,-0.0212,0.0055,0.0016,0.0049,0.0049,0.005,0.005,0.005,0.005,0.0693,0.0806,0.0865,0.1064,0.116,0.131,0.1403,0.1567,0.1701,0.1899,0.1969,0.1994,0.1699,0.0687,0.001,-0.0153,-0.036,-0.0396,-0.0491,-0.0352,-0.0341,-0.0331,-0.0388,-0.0439,-0.044,-0.0736,-0.0739,-0.0742]}],[{"header":{"parameterUnit":"m.s-1","parameterCategory":2,"la1":30.2991,"la2":30.254,"lo1":-89.0895,"lo2":-89.0444,"dy":0.0017,"dx":0.0017,"nx":28,"ny":28,"refTime":"2023-09-09T03:00:00:Z","depth":"2","parameterNumber":2,"parameterNumberName":"U-component_of_CURRENTS"},"data":[0,0,0,0,0,0,0,0,0,0,0,0,0,0,0,0,0,0,0,0,0,0,0,0,0,0,0,0,0,0,0,0,0,0,0,0,0,0,0,0,0,0,0,0,0,0,0,0,0,0,0,0,0,0,0,0,0,0,0.2433,0.2434,0,0.2458,0.2458,0.2458,0.2446,0.2445,0.2445,0.2445,0.2395,0.2394,0.2393,0,0,0,0,0,0,0,0,0,0,0,0,0,0.2399,0.2399,0.2433,0.2434,0.2434,0.2459,0.2458,0.2458,0.2446,0.2445,0.2445,0.2445,0.2396,0.2394,0.2393,0,0,0,0,0,0,0,0,0,0,0,0,0,0.2413,0.2399,0.2433,0.2435,0.2436,0.2459,0.2458,0.2458,0.2446,0.2445,0.2445,0.2445,0.2396,0.2394,0.2393,0.2386,0,0,0.2387,0.2386,0,0,0,0,0,0,0,0,0.2412,0.2413,0.2434,0.2435,0.2436,0.2454,0.2429,0.2432,0.2446,0.2436,0.2445,0.2445,0.2411,0.2408,0.2407,0.2384,0.2382,0.2387,0.2386,0.2385,0.2385,0,0,0,0,0,0,0,0.2411,0.2413,0.2437,0.2435,0.2436,0.2445,0.2445,0.2429,0.2419,0.2437,0.2438,0.2449,0.2411,0.2409,0.2406,0.2381,0.2387,0.2385,0.2384,0.2384,0.238,0.2381,0,0,0,0,0,0,0.2418,0.2412,0.2437,0.2439,0.243,0.2446,0.2446,0.2444,0.2421,0.242,0.245,0.2449,0.2412,0.2408,0.2404,0.2448,0.2385,0.2383,0.2382,0.2379,0.238,0.2381,0,0,0,0,0,0,0.2417,0.2419,0.2436,0.2431,0.2434,0.2447,0.2444,0.2444,0.2458,0.2432,0.2428,0.2465,0.2412,0.2406,0.2407,0.2444,0.2383,0.2381,0.2378,0.2379,0.2381,0.2502,0,0,0,0,0,0,0.2416,0.2418,0.2428,0.2431,0.2435,0.2451,0.2445,0.2445,0.2467,0.2467,0.2444,0.2438,0.2411,0.241,0.2405,0.244,0.238,0.2377,0.2379,0.238,0.2497,0.2508,0.2517,0,0,0,0,0,0.2414,0.2426,0.2427,0.2431,0.2443,0.2452,0.2454,0.2459,0.2469,0.2471,0.2467,0.244,0.2418,0.241,0.2404,0.2439,0.2376,0.2378,0.238,0.2493,0.2506,0.2517,0,0,0,0,0,0,0.2405,0.2426,0.2428,0.2442,0.2449,0.2452,0.2463,0.2473,0.2473,0.2479,0.2453,0.2447,0.2453,0.2429,0.242,0.2441,0.2392,0.2393,0.2479,0.2491,0.2501,0.2533,0.2378,0,0,0,0,0,0.2412,0.2426,0.2439,0.2446,0.2455,0.2464,0.2474,0.2481,0.2483,0.2484,0.2478,0.2467,0.2456,0.2461,0.2434,0.2457,0.2456,0.2473,0.2483,0.2492,0.2512,0.2555,0.2572,0.2388,0.2388,0.2388,0,0,0.2407,0.2423,0.2428,0.2447,0.2452,0.2471,0.2467,0.2487,0.2509,0.2478,0.2506,0.2493,0.2463,0.248,0.2483,0.2471,0.2542,0.2495,0.2503,0.2519,0.2559,0.2577,0.2594,0.239,0.239,0.2389,0,0,0.2412,0.242,0.244,0.2452,0.2479,0.2486,0.2499,0.252,0.2532,0.2558,0.2542,0.2576,0.2546,0.2562,0.2557,0.2611,0.2579,0.2583,0.2681,0.2722,0.2739,0.2753,0.2776,0.2791,0.2606,0.2606,0.2607,0,0.241,0.2426,0.2444,0.2469,0.2479,0.2498,0.2515,0.2536,0.2559,0.2586,0.2575,0.2599,0.2596,0.2636,0.2668,0.264,0.2639,0.2642,0.2739,0.2753,0.2766,0.2786,0.2802,0.2612,0.2612,0.2611,0.2611,0,0.2425,0.2445,0.2455,0.249,0.2508,0.2519,0.2554,0.2597,0.2624,0.2646,0.2692,0.27,0.2723,0.2733,0.2726,0.2811,0.2772,0.2736,0.2719,0.2793,0.2808,0.2822,0.2621,0.2619,0.2617,0.2616,0,0,0.2395,0.2453,0.2457,0.2476,0.2515,0.253,0.2592,0.2642,0.269,0.2734,0.2798,0.2835,0.2855,0.2854,0.2853,0.2923,0.3037,0.2887,0.2886,0.2927,0.3114,0.2996,0.2999,0.3012,0.3015,0.3017,0.3089,0,0.2392,0.2433,0.2468,0.2502,0.2518,0.2571,0.2617,0.268,0.2725,0.2798,0.2856,0.2896,0.2888,0.292,0.2987,0.3011,0.3079,0.302,0.302,0.3021,0.2922,0.3014,0.2767,0.2802,0.3102,0.3105,0.3106,0,0.239,0.2418,0.2447,0.2509,0.2522,0.2558,0.2643,0.269,0.2804,0.2854,0.2932,0.2951,0.307,0.3046,0.3151,0.3105,0.3133,0.3156,0.3158,0.3019,0.293,0.2774,0.2816,0.3129,0.3128,0.3126,0.3124,0,0.2343,0.2404,0.2422,0.2437,0.2514,0.2562,0.2615,0.2714,0.2759,0.2904,0.2955,0.3051,0.3117,0.3171,0.3217,0.3196,0.3314,0.3278,0.3195,0.3186,0.2963,0.2928,0.3368,0.3368,0.3368,0.3368,0.3367,0,0.2311,0.2331,0.2409,0.2417,0.2465,0.2536,0.2604,0.2691,0.2799,0.2863,0.2972,0.3028,0.3156,0.3216,0.3248,0.3256,0.3331,0.3238,0.321,0.2994,0.2963,0.3226,0.3208,0.337,0.337,0.3369,0.3369,0,0.2255,0.2295,0.2329,0.2412,0.2442,0.2483,0.2591,0.264,0.2758,0.2855,0.2909,0.3046,0.3135,0.3206,0.3316,0.3282,0.3313,0.3293,0.3025,0.2964,0.3154,0.3142,0.3229,0.3226,0.3223,0.3221,0.3219,0,0.2228,0.2244,0.2314,0.233,0.2369,0.2444,0.2492,0.262,0.2668,0.284,0.2871,0.3006,0.3062,0.3151,0.3149,0.3171,0.3257,0.2946,0.2876,0.3183,0.3147,0.3139,0.3131,0.2632,0.2625,0.262,0.2616,0,0.2177,0.2206,0.2221,0.2259,0.2305,0.2363,0.2443,0.2469,0.2624,0.2685,0.2767,0.283,0.2936,0.285,0.2887,0.2866,0.2922,0.2835,0.3243,0.2694,0.2622,0.2586,0.2597,0.2568,0.2572,0.2576,0.2579,0.2581,0.213,0.2138,0.2154,0.2185,0.2228,0.2263,0.2265,0.2339,0.2383,0.2452,0.2585,0.2596,0.2651,0.2572,0.2496,0.245,0.2658,0.2551,0.2567,0.2589,0.2496,0.2422,0.2312,0.2315,0.2318,0.2321,0.2323,0,0.2073,0.2085,0.2086,0.2103,0.2093,0.2167,0.2206,0.2171,0.2162,0.226,0.2302,0.2141,0.2084,0.2138,0.1991,0.1989,0.1971,0.1912,0.1872,0.1921,0.1965,0.1839,0.1482,0.1479,0.1477,0.1474,0,0,0.2039,0.2006,0.2008,0.1955,0.1975,0.1934,0.1932,0.1893,0.1906,0.1865,0.1857,0.2015,0.2082,0.176,0.1714,0.157,0.1733,0.1508,0.2187,0.219,0.223,0.2342,0.2204,0,0,0,0,0]},{"header":{"parameterUnit":"m.s-1","parameterCategory":2,"la1":30.2991,"la2":30.254,"lo1":-89.0895,"lo2":-89.0444,"dy":0.0017,"dx":0.0017,"nx":28,"ny":28,"refTime":"2023-09-09T03:00:00:Z","depth":"2","parameterNumber":3,"parameterNumberName":"V-component_of_CURRENTS"},"data":[0,0,0,0,0,0,0,0,0,0,0,0,0,0,0,0,0,0,0,0,0,0,0,0,0,0,0,0,0,0,0,0,0,0,0,0,0,0,0,0,0,0,0,0,0,0,0,0,0,0,0,0,0,0,0,0,0,0,0.0231,0.023,0,0.0193,0.0193,0.0192,0.0164,0.0163,0.0163,0.0163,0.0111,0.011,0.0109,0,0,0,0,0,0,0,0,0,0,0,0,0,0.025,0.025,0.0231,0.023,0.023,0.0193,0.0193,0.0192,0.0164,0.0163,0.0163,0.0162,0.0112,0.011,0.0109,0,0,0,0,0,0,0,0,0,0,0,0,0,0.023,0.025,0.0231,0.0211,0.0208,0.0193,0.0193,0.0192,0.0164,0.0163,0.0163,0.0162,0.0112,0.0111,0.0109,0.0108,0,0,0.0104,0.0103,0,0,0,0,0,0,0,0,0.0232,0.023,0.0214,0.0212,0.0209,0.0182,0.0181,0.0163,0.0164,0.0181,0.0163,0.0162,0.0134,0.013,0.0125,0.0106,0.0104,0.0104,0.0103,0.0102,0.0102,0,0,0,0,0,0,0,0.0233,0.0231,0.0216,0.0214,0.0211,0.0194,0.0191,0.0177,0.0161,0.018,0.0177,0.0173,0.0133,0.0127,0.0124,0.0103,0.0104,0.0103,0.0102,0.0101,0.0081,0.0081,0,0,0,0,0,0,0.0239,0.0233,0.0217,0.0215,0.0219,0.0194,0.0191,0.0192,0.0161,0.0156,0.0173,0.0171,0.013,0.0126,0.0122,0.0118,0.0102,0.0101,0.01,0.0081,0.0081,0.0082,0,0,0,0,0,0,0.024,0.0238,0.0219,0.0222,0.0219,0.0195,0.0196,0.0191,0.0184,0.0156,0.0151,0.0171,0.0129,0.0124,0.0113,0.0116,0.01,0.0099,0.008,0.0081,0.0081,0.0112,0,0,0,0,0,0,0.024,0.0239,0.0242,0.0223,0.0219,0.0216,0.0196,0.0191,0.0182,0.018,0.0152,0.0147,0.0129,0.0116,0.0112,0.0114,0.0097,0.0079,0.008,0.0081,0.011,0.0113,0.0116,0,0,0,0,0,0.0241,0.0252,0.0243,0.0241,0.0224,0.0217,0.0213,0.0194,0.0183,0.0185,0.0166,0.0148,0.0118,0.0115,0.011,0.0111,0.0079,0.008,0.0081,0.0109,0.0113,0.0116,0,0,0,0,0,0,0.0263,0.0249,0.0239,0.0245,0.0233,0.0212,0.0213,0.0198,0.0184,0.0182,0.0153,0.0147,0.0143,0.0124,0.0121,0.0109,0.0096,0.0096,0.0119,0.0122,0.0125,0.0152,0.0096,0,0,0,0,0,0.027,0.0276,0.0255,0.0262,0.0257,0.0235,0.0229,0.0217,0.0201,0.0195,0.0172,0.0153,0.0144,0.013,0.0122,0.011,0.0097,0.0108,0.0111,0.0114,0.0133,0.0122,0.0126,0.0085,0.0085,0.0085,0,0,0.0279,0.0274,0.0275,0.0267,0.0257,0.0259,0.0231,0.0228,0.0232,0.0192,0.0189,0.0168,0.0147,0.014,0.0135,0.012,0.0114,0.0115,0.0117,0.0135,0.0124,0.0128,0.0131,0.0086,0.0085,0.0085,0,0,0.0307,0.0297,0.0311,0.0304,0.0293,0.028,0.0281,0.0259,0.0252,0.0245,0.0221,0.0203,0.018,0.0164,0.0154,0.0169,0.0139,0.0159,0.0184,0.0173,0.0176,0.0179,0.0147,0.0147,0.0149,0.015,0.015,0,0.0317,0.0333,0.0313,0.0324,0.0326,0.0293,0.0308,0.0297,0.0274,0.0276,0.0252,0.0228,0.0197,0.0197,0.0193,0.0176,0.0159,0.0169,0.0177,0.018,0.0182,0.0148,0.0148,0.0151,0.0151,0.0151,0.0151,0,0.0353,0.0364,0.0373,0.0378,0.0376,0.0384,0.0366,0.0363,0.0345,0.0331,0.0328,0.0286,0.027,0.025,0.0221,0.0223,0.02,0.019,0.0168,0.0188,0.0151,0.015,0.0153,0.0153,0.0152,0.0152,0,0,0.0382,0.0396,0.04,0.0415,0.0406,0.0413,0.0422,0.0425,0.0445,0.0405,0.0423,0.038,0.0348,0.0336,0.0293,0.027,0.0247,0.0233,0.0231,0.0202,0.0208,0.0185,0.0181,0.0237,0.0237,0.0238,0.0167,0,0.0418,0.0459,0.0452,0.0488,0.0507,0.0486,0.0506,0.0503,0.0493,0.0498,0.045,0.0451,0.0384,0.0374,0.0338,0.0285,0.025,0.0267,0.0193,0.0191,0.017,0.0182,0.02,0.0139,0.0166,0.0165,0.0165,0,0.0458,0.0482,0.0529,0.0559,0.0566,0.0582,0.0612,0.0625,0.062,0.0614,0.059,0.055,0.0505,0.0452,0.0361,0.0374,0.0295,0.0244,0.024,0.0215,0.0168,0.0128,0.0136,0.0163,0.0163,0.0164,0.0164,0,0.0503,0.0537,0.0583,0.059,0.0616,0.0638,0.0653,0.0663,0.0696,0.0689,0.0708,0.0641,0.062,0.0526,0.0393,0.038,0.0296,0.0263,0.0168,0.0164,0.0166,0.0162,0.0208,0.0208,0.0208,0.0208,0.0208,0,0.0549,0.0582,0.0611,0.0634,0.0699,0.0694,0.0759,0.0768,0.0795,0.0848,0.0771,0.079,0.0641,0.0563,0.0432,0.0297,0.0319,0.0183,0.0154,0.0174,0.0171,0.0189,0.0187,0.0205,0.0206,0.0207,0.0207,0,0.0592,0.0608,0.0662,0.0703,0.0723,0.0771,0.0832,0.0881,0.0899,0.0965,0.0969,0.0905,0.0804,0.0643,0.0487,0.0359,0.0229,0.0172,0.0192,0.0167,0.0088,0.0089,0.0062,0.0061,0.006,0.0059,0.0058,0,0.0617,0.0654,0.0719,0.076,0.0781,0.0847,0.09,0.0934,0.0991,0.1041,0.108,0.1002,0.0953,0.0704,0.0476,0.0252,0.022,0.0113,0.0095,0.0104,0.0078,0.008,0.0083,0.0093,0.0093,0.0092,0.0092,0,0.0666,0.0692,0.0737,0.0827,0.0889,0.0964,0.1039,0.1101,0.1156,0.1205,0.1248,0.1213,0.0986,0.0757,0.0449,0.0295,0.015,0.01,0.012,0.0132,0.0129,0.0105,0.0107,0.0089,0.009,0.009,0.009,0.009,0.0703,0.0747,0.0813,0.0896,0.0974,0.1072,0.1139,0.1218,0.1313,0.1387,0.1356,0.1304,0.1063,0.0662,0.0404,0.0128,0.0141,0.0034,0.0037,0.004,0.0061,0.0058,0.0007,0.0007,0.0006,0.0006,0.0006,0,0.0749,0.0798,0.0875,0.0975,0.1062,0.11,0.1227,0.129,0.1396,0.1446,0.1462,0.1221,0.0972,0.0691,0.0292,0.0056,0.0039,-0.0032,0.0004,0.0009,0.0013,0.0034,-0.0029,-0.003,-0.0031,-0.0032,0,0,0.0772,0.0848,0.0885,0.1027,0.1103,0.1224,0.1298,0.1388,0.1446,0.1475,0.1439,0.1378,0.1051,0.0753,0.0435,0.0204,0.0157,0.0151,0.0206,0.0292,0.0298,0.0077,0.0118,0,0,0,0,0]}],[{"header":{"parameterUnit":"m.s-1","parameterCategory":2,"la1":30.2991,"la2":30.254,"lo1":-89.0895,"lo2":-89.0444,"dy":0.0017,"dx":0.0017,"nx":28,"ny":28,"refTime":"2023-09-09T03:00:00:Z","depth":"4","parameterNumber":2,"parameterNumberName":"U-component_of_CURRENTS"},"data":[0,0,0,0,0,0,0,0,0,0,0,0,0,0,0,0,0,0,0,0,0,0,0,0,0,0,0,0,0,0,0,0,0,0,0,0,0,0,0,0,0,0,0,0,0,0,0,0,0,0,0,0,0,0,0,0,0,0,0.1315,0.1316,0,0.1336,0.1336,0.1337,0.1377,0.1377,0.1378,0.1379,0.1401,0.1401,0.1401,0,0,0,0,0,0,0,0,0,0,0,0,0,0.1303,0.1303,0.1315,0.1316,0.1316,0.1336,0.1336,0.1337,0.1376,0.1377,0.1378,0.1379,0.1401,0.1401,0.1401,0,0,0,0,0,0,0,0,0,0,0,0,0,0.1316,0.1303,0.1315,0.1337,0.1339,0.1336,0.1336,0.1337,0.1376,0.1377,0.1378,0.1379,0.1401,0.1401,0.1401,0.1381,0,0,0.1401,0.1401,0,0,0,0,0,0,0,0,0.1315,0.1316,0.1334,0.1336,0.1338,0.1354,0.134,0.1351,0.1376,0.1363,0.1379,0.138,0.1384,0.1386,0.1389,0.1382,0.1383,0.1401,0.1401,0.1401,0.1401,0,0,0,0,0,0,0,0.1314,0.1315,0.1325,0.1334,0.1336,0.1343,0.1346,0.1343,0.1369,0.1365,0.1367,0.1367,0.1386,0.1389,0.139,0.1383,0.1401,0.1401,0.1401,0.1401,0.1446,0.1448,0,0,0,0,0,0,0.1308,0.1314,0.1324,0.1325,0.1327,0.1342,0.1346,0.1349,0.1369,0.1373,0.1366,0.1369,0.1388,0.139,0.1391,0.1441,0.1401,0.1401,0.1401,0.1445,0.1447,0.1448,0,0,0,0,0,0,0.1308,0.1309,0.1323,0.1319,0.1322,0.1342,0.1344,0.1348,0.138,0.137,0.1374,0.1396,0.1389,0.1391,0.1411,0.1439,0.1401,0.1401,0.1444,0.1446,0.1447,0.1493,0,0,0,0,0,0,0.1308,0.1309,0.1325,0.1319,0.1321,0.1339,0.1343,0.1348,0.1376,0.138,0.1396,0.1398,0.139,0.1411,0.1411,0.1438,0.1401,0.1442,0.1445,0.1447,0.149,0.1497,0.1502,0,0,0,0,0,0.1307,0.1317,0.1326,0.1328,0.1338,0.134,0.1343,0.136,0.1376,0.1393,0.1405,0.1399,0.1426,0.1412,0.1411,0.1439,0.1441,0.1444,0.1447,0.1488,0.1495,0.1502,0,0,0,0,0,0,0.1321,0.1322,0.1332,0.1343,0.1351,0.1347,0.1364,0.1375,0.1398,0.1414,0.1407,0.1409,0.1438,0.1432,0.1416,0.1461,0.1436,0.1438,0.1467,0.1474,0.148,0.1509,0.1401,0,0,0,0,0,0.1331,0.1342,0.1341,0.1354,0.136,0.1369,0.1379,0.1393,0.1402,0.1415,0.1426,0.1438,0.1443,0.1455,0.1457,0.1477,0.149,0.1498,0.1504,0.1509,0.1534,0.1564,0.1575,0.1457,0.1457,0.1457,0,0,0.1338,0.1342,0.1349,0.1359,0.1368,0.1378,0.1379,0.1403,0.142,0.1412,0.1451,0.1458,0.1452,0.1476,0.149,0.148,0.155,0.1513,0.1517,0.154,0.1568,0.158,0.159,0.1459,0.1459,0.1458,0,0,0.1348,0.1365,0.1376,0.1387,0.1407,0.1407,0.142,0.1436,0.1457,0.1484,0.1485,0.1515,0.1522,0.1531,0.1531,0.1571,0.1576,0.1576,0.1633,0.1662,0.1672,0.1681,0.1713,0.1725,0.1583,0.1583,0.1583,0,0.1364,0.1373,0.1381,0.1396,0.1407,0.1422,0.1438,0.1453,0.148,0.1503,0.1507,0.1553,0.1548,0.158,0.1601,0.1586,0.1608,0.1603,0.167,0.1679,0.1688,0.1718,0.1731,0.1585,0.1585,0.1585,0.1585,0,0.1371,0.1394,0.1402,0.1423,0.1438,0.1456,0.1471,0.1502,0.1529,0.1551,0.1606,0.1612,0.1648,0.1647,0.1638,0.1701,0.1699,0.1669,0.1652,0.1703,0.1731,0.1743,0.1589,0.1588,0.1587,0.1587,0,0,0.1367,0.1401,0.141,0.1427,0.1458,0.1467,0.1501,0.1533,0.1571,0.1615,0.1673,0.1695,0.1733,0.1738,0.1739,0.1771,0.1844,0.1762,0.1762,0.1795,0.1925,0.1799,0.1799,0.183,0.1833,0.1835,0.1921,0,0.1374,0.1405,0.1421,0.1455,0.1467,0.1497,0.1527,0.1569,0.1606,0.1669,0.171,0.1764,0.1754,0.1792,0.1825,0.1841,0.1879,0.1825,0.1872,0.1874,0.1755,0.1809,0.1842,0.193,0.1933,0.1935,0.1936,0,0.1372,0.1395,0.1428,0.1473,0.1484,0.1514,0.1572,0.1605,0.1687,0.1726,0.1802,0.1841,0.192,0.1895,0.1972,0.1944,0.1956,0.1958,0.1961,0.1839,0.1769,0.1869,0.1958,0.1956,0.1955,0.1953,0.1952,0,0.1347,0.1397,0.1425,0.144,0.1494,0.1528,0.1568,0.1637,0.168,0.1788,0.184,0.1928,0.1988,0.2026,0.2052,0.2028,0.2123,0.2075,0.1974,0.1965,0.2033,0.2022,0.2134,0.2134,0.2134,0.2134,0.2134,0,0.1325,0.1353,0.1426,0.144,0.1491,0.1538,0.1604,0.1653,0.1747,0.1806,0.1889,0.1942,0.2028,0.2086,0.2096,0.2078,0.216,0.2007,0.1983,0.2049,0.204,0.2041,0.2029,0.2137,0.2136,0.2136,0.2135,0,0.1277,0.1326,0.1367,0.1445,0.1478,0.1521,0.1622,0.166,0.1759,0.1841,0.1888,0.1991,0.2058,0.2118,0.218,0.2114,0.2116,0.2087,0.2183,0.216,0.1933,0.1923,0.1985,0.1981,0.1978,0.1976,0.1974,0,0.1244,0.1261,0.1365,0.1396,0.1436,0.1512,0.1554,0.166,0.1701,0.1844,0.1872,0.1989,0.2043,0.2034,0.2099,0.2118,0.2083,0.207,0.1981,0.1949,0.1921,0.1915,0.1909,0.1969,0.1968,0.1967,0.1966,0,0.118,0.1237,0.1276,0.1345,0.1402,0.145,0.1527,0.155,0.1666,0.1777,0.1816,0.1852,0.1922,0.196,0.1994,0.1995,0.2068,0.2036,0.2042,0.1959,0.193,0.1903,0.1901,0.1955,0.1957,0.1958,0.1959,0,0.1144,0.1161,0.1228,0.1277,0.134,0.1357,0.1411,0.1457,0.1518,0.1672,0.1687,0.1797,0.1909,0.1898,0.1928,0.1926,0.1885,0.1802,0.1818,0.1831,0.1736,0.1674,0.162,0,0,0,0,0,0.1099,0.111,0.1145,0.119,0.1242,0.1283,0.137,0.1423,0.1546,0.1533,0.1607,0.1663,0.17,0.1757,0.1724,0.1857,0.1892,0.1808,0.1805,0.1896,0.1908,0.1808,0,0,0,0,0,0,0.107,0.1109,0.1118,0.1103,0.1112,0.1157,0.1208,0.1291,0.1293,0.1425,0.1458,0.156,0.1627,0.171,0.1693,0.1711,0.1672,0.1886,0.1881,0.1889,0.19,0.191,0.1812,0,0,0,0,0]},{"header":{"parameterUnit":"m.s-1","parameterCategory":2,"la1":30.2991,"la2":30.254,"lo1":-89.0895,"lo2":-89.0444,"dy":0.0017,"dx":0.0017,"nx":28,"ny":28,"refTime":"2023-09-09T03:00:00:Z","depth":"4","parameterNumber":3,"parameterNumberName":"V-component_of_CURRENTS"},"data":[0,0,0,0,0,0,0,0,0,0,0,0,0,0,0,0,0,0,0,0,0,0,0,0,0,0,0,0,0,0,0,0,0,0,0,0,0,0,0,0,0,0,0,0,0,0,0,0,0,0,0,0,0,0,0,0,0,0,0.0247,0.0247,0,0.0239,0.0239,0.0239,0.0227,0.0227,0.0227,0.0227,0.0207,0.0207,0.0207,0,0,0,0,0,0,0,0,0,0,0,0,0,0.0244,0.0244,0.0247,0.0247,0.0247,0.0239,0.0239,0.0239,0.0227,0.0227,0.0227,0.0227,0.0208,0.0207,0.0207,0,0,0,0,0,0,0,0,0,0,0,0,0,0.0241,0.0244,0.0247,0.0241,0.024,0.0239,0.0239,0.0239,0.0227,0.0227,0.0227,0.0227,0.0208,0.0207,0.0207,0.0208,0,0,0.0205,0.0205,0,0,0,0,0,0,0,0,0.0241,0.0241,0.0242,0.0241,0.024,0.0234,0.0231,0.0228,0.0227,0.0232,0.0227,0.0226,0.0216,0.0215,0.0213,0.0207,0.0206,0.0205,0.0205,0.0204,0.0204,0,0,0,0,0,0,0,0.0242,0.0241,0.0243,0.0242,0.0241,0.0235,0.0235,0.023,0.0224,0.0231,0.023,0.023,0.0215,0.0214,0.0212,0.0206,0.0205,0.0204,0.0204,0.0204,0.0216,0.0217,0,0,0,0,0,0,0.0244,0.0242,0.0244,0.0243,0.0241,0.0236,0.0235,0.0236,0.0225,0.0223,0.0231,0.023,0.0215,0.0213,0.0212,0.0229,0.0204,0.0204,0.0203,0.0215,0.0216,0.0217,0,0,0,0,0,0,0.0244,0.0245,0.0244,0.0242,0.0242,0.0236,0.0237,0.0236,0.0239,0.0225,0.0222,0.0236,0.0214,0.0213,0.0218,0.0228,0.0203,0.0203,0.0215,0.0216,0.0216,0.0253,0,0,0,0,0,0,0.0244,0.0245,0.0251,0.0243,0.0242,0.0248,0.0238,0.0236,0.0239,0.0238,0.0228,0.0226,0.0214,0.0219,0.0217,0.0226,0.0203,0.0214,0.0215,0.0216,0.0251,0.0255,0.0259,0,0,0,0,0,0.0244,0.0254,0.0252,0.0252,0.025,0.0248,0.0247,0.0242,0.024,0.0243,0.0241,0.0226,0.0226,0.0219,0.0217,0.0226,0.0213,0.0215,0.0216,0.0249,0.0254,0.0259,0,0,0,0,0,0,0.0256,0.0254,0.0251,0.026,0.0256,0.0246,0.0252,0.0247,0.0248,0.025,0.0236,0.0234,0.0242,0.0231,0.0224,0.0234,0.0216,0.0218,0.0243,0.0247,0.0251,0.0252,0.0202,0,0,0,0,0,0.0262,0.0271,0.0262,0.0271,0.027,0.0263,0.0263,0.0259,0.0256,0.0256,0.0249,0.0245,0.0246,0.0244,0.0242,0.0247,0.0219,0.0251,0.0255,0.0258,0.0259,0.0228,0.0229,0.0222,0.0222,0.0222,0,0,0.0269,0.027,0.0275,0.0275,0.0272,0.0278,0.0262,0.0267,0.0276,0.0255,0.0268,0.0259,0.0252,0.0259,0.0261,0.0251,0.0246,0.026,0.0263,0.0262,0.023,0.023,0.0231,0.0223,0.0222,0.0222,0,0,0.0289,0.0289,0.0301,0.03,0.03,0.0296,0.0299,0.0292,0.0294,0.0303,0.0293,0.0293,0.0291,0.0287,0.0285,0.0309,0.0269,0.0307,0.0324,0.0295,0.0295,0.0295,0.0256,0.0252,0.0306,0.0306,0.0306,0,0.0297,0.0313,0.0304,0.0315,0.0321,0.0306,0.0321,0.032,0.0318,0.0322,0.0313,0.0313,0.0305,0.0315,0.0322,0.0318,0.0287,0.0307,0.0299,0.0298,0.0297,0.0257,0.0252,0.0308,0.0308,0.0308,0.0307,0,0.0322,0.0337,0.0345,0.0355,0.0359,0.0369,0.0365,0.0373,0.0372,0.0366,0.0374,0.036,0.0358,0.0355,0.0346,0.0341,0.0316,0.0308,0.0285,0.03,0.0257,0.0251,0.0311,0.031,0.0309,0.0309,0,0,0.0338,0.0359,0.0364,0.038,0.0383,0.0391,0.0409,0.0418,0.0435,0.0421,0.0436,0.0428,0.041,0.0407,0.0391,0.0363,0.0329,0.0332,0.0329,0.029,0.0249,0.0234,0.0226,0.0313,0.0313,0.0312,0.022,0,0.0362,0.0397,0.0399,0.0435,0.0451,0.0448,0.047,0.0475,0.0474,0.0481,0.0459,0.0467,0.0433,0.0436,0.0401,0.0351,0.0316,0.0354,0.0244,0.0241,0.0222,0.022,0.031,0.0215,0.0214,0.0213,0.0212,0,0.0387,0.0409,0.045,0.0484,0.0492,0.0511,0.0542,0.056,0.056,0.0559,0.0545,0.0521,0.0489,0.0461,0.0363,0.0385,0.032,0.0273,0.0268,0.0237,0.0215,0.0199,0.0201,0.0202,0.0203,0.0204,0.0204,0,0.041,0.0447,0.0487,0.0496,0.0528,0.0552,0.0572,0.0584,0.061,0.0608,0.0616,0.0564,0.0548,0.0458,0.0353,0.0355,0.0235,0.0227,0.0149,0.0147,0.0171,0.0173,0.0156,0.0156,0.0156,0.0156,0.0156,0,0.0436,0.0468,0.0504,0.0525,0.0581,0.0588,0.0642,0.0655,0.0675,0.0704,0.0659,0.0657,0.0545,0.0463,0.036,0.0231,0.0236,0.0147,0.0123,0.0189,0.0193,0.0166,0.0169,0.0153,0.0153,0.0154,0.0155,0,0.0456,0.0479,0.0528,0.0573,0.0596,0.0637,0.0697,0.0729,0.0743,0.0779,0.0782,0.0722,0.0614,0.0488,0.0339,0.0249,0.0127,0.0081,0.0152,0.0134,0.0054,0.006,-0.0016,-0.0018,-0.0019,-0.002,-0.002,0,0.047,0.0498,0.0568,0.0604,0.0629,0.0691,0.0735,0.0769,0.0802,0.0814,0.0829,0.0744,0.0685,0.0458,0.0321,0.0119,0.0095,0.0023,0.0044,0.0053,0.0037,0.0044,0.0051,-0.0022,-0.0022,-0.0023,-0.0023,0,0.0493,0.0522,0.0562,0.0638,0.0694,0.0762,0.0822,0.0849,0.0885,0.0896,0.0862,0.0754,0.063,0.0456,0.0299,0.0156,0.0064,0.0011,0.0012,0.0031,0.0045,0.0032,0.004,-0.0027,-0.0026,-0.0026,-0.0026,0,0.0512,0.0544,0.0599,0.0666,0.0741,0.0807,0.0839,0.087,0.0904,0.091,0.0891,0.0765,0.0692,0.0474,0.0328,0.0186,0.0151,0.0102,0.0098,0.01,0.0163,0.0199,0.0151,0,0,0,0,0,0.0525,0.0558,0.0619,0.0691,0.0765,0.0812,0.0886,0.0909,0.0937,0.092,0.091,0.0795,0.0583,0.049,0.0345,0.0301,0.0121,0.0124,0.0062,-0.0048,-0.0043,0.0009,0,0,0,0,0,0,0.053,0.0587,0.0614,0.07,0.0751,0.0837,0.0887,0.0909,0.0897,0.0901,0.0791,0.0748,0.0541,0.0665,0.0338,0.0295,0.0232,0.0031,0.0027,-0.005,-0.0046,-0.0043,0.0013,0,0,0,0,0]}]]